ZF1EJ Savannah KY current weather conditions

sailwx.info

Wind from 193 at 6 knots gusting 8

Air temperature 31.7° C
Dewpoint 24.0° C

Last reported at 2020-Aug-03 18:00 UTC.
Time now 2020-Aug-03 18:18 UTC

Location: N 19°16' W 081°18'.
View on Google Maps.

See reports from other nearby stations

  
Tides and Currents Weather Stations Pressure Air Temp Water Temp Dewpoint Dewpoint Depression Visibility Wind Speed Wind Dir Waves Ship Positions
date/time (UTC)wind fromknots sea level pressurealtimeterstation pressurevisibilityair tempwater tempwave heightnotes
2020-Aug-03 18:00 193 6 gusting 8 31.7
2020-Aug-03 17:00 154 5 gusting 7 31.7
2020-Aug-03 16:00 177 4 gusting 6 31.1
2020-Aug-03 15:00 192 1 gusting 5 31.1
2020-Aug-03 14:00 173 3 gusting 5 30.6
2020-Aug-03 13:00 092 1 gusting 1 28.3
2020-Aug-03 12:00 204 26.7
2020-Aug-03 11:00 302 1 gusting 4 26.7
2020-Aug-03 10:00 053 3 gusting 4 27.2
2020-Aug-03 09:00 063 1 gusting 2 27.2
2020-Aug-03 08:00 085 2 gusting 2 26.7
2020-Aug-03 07:00 068 0 gusting 2 27.2
2020-Aug-03 06:00 058 0 gusting 1 27.2
2020-Aug-03 05:00 068 0 gusting 1 27.2
2020-Aug-03 04:00 068 1 gusting 1 27.8
2020-Aug-03 03:00 097 1 gusting 1 27.8
2020-Aug-03 02:00 055 1 gusting 1 28.9
2020-Aug-03 01:00 081 0 gusting 2 28.9
2020-Aug-03 00:00 204 1 gusting 2 29.4
2020-Aug-02 23:00 245 30.6
2020-Aug-02 22:00 197 2 gusting 5 30.6
2020-Aug-02 21:00 223 4 gusting 4 30.6
2020-Aug-02 20:00 188 2 gusting 6 31.1
2020-Aug-02 19:00 152 1 gusting 6 31.1
2020-Aug-02 18:00 209 2 gusting 6 31.1
2020-Aug-02 17:00 234 4 gusting 6 30.6
2020-Aug-02 16:00 203 5 gusting 8 30.6
2020-Aug-02 15:00 238 2 gusting 7 30.6
2020-Aug-02 14:00 189 2 gusting 8 30.6
2020-Aug-02 13:00 213 5 gusting 6 30.0
2020-Aug-02 12:00 236 6 gusting 6 28.9
2020-Aug-02 11:00 204 2 gusting 6 28.3
2020-Aug-02 10:00 213 3 gusting 10 28.3
2020-Aug-02 09:00 231 5 gusting 8 28.9
2020-Aug-02 08:00 221 4 gusting 10 28.9
2020-Aug-02 07:00 214 6 gusting 8 28.9
2020-Aug-02 06:00 219 3 gusting 6 28.9
2020-Aug-02 05:00 205 3 gusting 6 29.4
2020-Aug-02 04:00 180 3 gusting 5 28.9
2020-Aug-02 03:00 195 1 gusting 4 29.4
2020-Aug-02 02:00 198 1 gusting 4 29.4
2020-Aug-02 01:00 221 1 gusting 2 29.4
2020-Aug-02 00:00 229 2 gusting 5 29.4
2020-Aug-01 23:00 204 2 gusting 6 30.6
2020-Aug-01 22:00 236 4 gusting 6 31.1
2020-Aug-01 21:00 241 5 gusting 6 31.1
2020-Aug-01 20:00 241 4 gusting 7 31.1
2020-Aug-01 19:00 173 2 gusting 7 31.7
2020-Aug-01 18:00 232 4 gusting 7 31.7